Find Kosmos-2386

NORAD ID: 27057 Int'l Des: 2001-058 Owner: KVR Country: RU operational
LEOCIRCULARPOLAR

实时位置

正在加载3D地球...

关于 Kosmos-2386

正在加载描述...

即将过境

Passes for default location (London). Set your location on the main map for personalized predictions.

高度历史

Loading altitude history...

两行轨道根数

1 27057U 01058C 26105.83775385 .00000002 00000-0 -46061-4 0 9999
2 27057 82.5411 254.0752 0000930 124.8501 235.2677 12.61615579118647
Epoch: Apr 15, 2026 • Age: 8 hours

当前状态

高度 1421.8 km
速度 7.15 km/s
星下点 42.92°N, 155.94°E
发射日期 Dec 28, 2001
运行时间 24.2 years
类型 other

技术详情

分类 Payload
质量 225.00 kg
干质量 225.00 kg
总质量 225.00 kg
长度 1.60 m
直径 0.80 m
跨度 7.00 m
形状 Cyl + Ant
制造商 NPOPMR
平台类型 Strela-3
阶段状态 In Orbit
所有者/国家 KVR/RU

Most Searched